Regional Weather Roundup
Issued by NWS Charleston, SC

Current Version | Previous Version | Text Only | Print | Product List | Glossary Off
Versions: 1 2 3 4 5 6 7 8 9 10 11 12 13 14 15 16 17 18 19 20 21 22 23 24 25 26 27 28 29 30 31 32 33 34 35 36 37 38 39 40 41 42 43 44 45 46 47 48 49 50

972
ASUS42 KCHS 232212
RWRCHS

REGIONAL WEATHER ROUNDUP
NATIONAL WEATHER SERVICE CHARLESTON SC
600 PM EDT WED AUG 23 2017

NOTE: "FAIR" INDICATES FEW OR NO CLOUDS BELOW 12,000 FEET WITH NO
SIGNIFICANT WEATHER AND/OR OBSTRUCTIONS TO VISIBILITY.

NOT ALL STATIONS ARE QUALITY CONTROLLED. USE DATA WITH CAUTION...
ESPECIALLY DEWPOINT OBSERVATIONS.

SCZ027-030-031-034>040-042>050-232300-
...SOUTHEAST SOUTH CAROLINA...

CITY           SKY/WX    TMP DP  RH WIND       PRES   REMARKS
N CHARLESTON   MOSUNNY   89  77  67 S14       29.82F HX 101
WATERFRONT PRK   N/A     88  78  72 S13       29.68F HX 101
JOHNS ISLAND   FAIR      88  79  74 S13       29.83F HX 102
PINOPOLIS        N/A     93  75  55 SW5       29.74F HX 104
MONCKS CORNER  FAIR      91  70  49 S10       29.81F HX  97
SUMMERVILLE    FAIR      91  73  55 SW5       29.82F HX 100
BEAUFORT MCAS  MOSUNNY   90  80  72 S8        29.83F HX 107
BEAUFORT ARPT  FAIR      88  77  70 S13       29.83F HX 100
HILTON HEAD IS NOT AVBL
WALTERBORO     PTCLDY    90  73  58 S7        29.83F HX  98
ALLENDALE      NOT AVBL

...SOUTHERN MIDLANDS AND PEE DEE...

CITY           SKY/WX    TMP DP  RH WIND       PRES   REMARKS
GEORGETOWN     FAIR      88  77  70 S10G16    29.83F HX 100
KINGSTREE      FAIR      90  73  58 S5        29.80F HX  98
ORANGEBURG     MOSUNNY   92  70  48 SW9       29.80F HX  97
BARNWELL       FAIR      97  72  44 W9        29.81F HX 105
AIKEN          FAIR      91  68  46 SW14      29.85F HX  95
MANNING        FAIR      90  72  55 NW14      29.80S HX  96
COLUMBIA       PTSUNNY   91  70  49 SW7       29.78F HX  96
SUMTER         PTSUNNY   94  69  43 SW9       29.77F HX  99
FLORENCE       MOSUNNY   90  75  61 S9        29.79S HX 100
MYRTLE BEACH   MOSUNNY   88  79  74 S20       29.82  HX 102
N MYRTLE BEACH SUNNY     86  78  77 S16       29.81F HX  98

$$

GAZ063-065-086>088-099>101-113>116-118-119-134>141-150-232300-
...SOUTHEAST GEORGIA...

CITY           SKY/WX    TMP DP  RH WIND       PRES   REMARKS
SAVANNAH ARPT  PTSUNNY   89  76  65 S13       29.83F THUNDER HX 100
HUNTER AAF     PTSUNNY   82  76  83 SE14      29.81F THUNDER
FORT STEWART   MOSUNNY   91  75  59 S8        29.82F HX 102
STATESBORO     CLOUDY    89  68  50 S8        29.84F HX  92
SYLVANIA       CLOUDY    93  76  58 SW5       29.83F HX 105
CLAXTON        TSTM      80  75  84 SE10G17   29.86S

...CSRA...CENTRAL AND FAR SOUTHEAST GEORGIA...

CITY           SKY/WX    TMP DP  RH WIND       PRES   REMARKS
THOMSON        SUNNY     91  71  53 N8        29.88F HX  97
AUGUSTA-BUSH   SUNNY     94  71  47 W9        29.81F HX 101
AUGUSTA-DANIEL SUNNY     94  67  41 W8        29.83F HX  97
SWAINSBORO     FAIR      95  70  43 NW8       29.84S HX 101
VIDALIA        PTSUNNY   95  70  43 W6        29.83F HX 101
EASTMAN        MOCLDY    95  57  27 SW8       29.87S HX  93
HAZLEHURST     FAIR      96  53  23 SW3       29.83F HX  93
ALMA           CLOUDY    84  72  67 S3        29.85F THUNDER
WAYCROSS       MOSUNNY   93  71  48 SW3       29.85F HX  99
JESUP          FAIR      90  75  62 CALM      29.85F HX 100
BAXLEY         LGT RAIN  86  77  74 S10G16    29.84F HX  97
BRUNSWICK      CLOUDY    86  73  66 SE9       29.86S THUNDER HAZE
SAINT SIMONS   MOSUNNY   87  76  69 SE10      29.85F HX  97

$$

SCZ027-028-034-036>038-045-046-048>050-GAZ119-141-232300-
...LAKE AND SUPPLEMENTAL COASTAL OBSERVATIONS...

STATION/POSITION TIME  TEMP    WIND        PRES    WAVE   SWELL
                       AIR SEA DIR/SP/G            HT/PER HT/PER/DIR
                 (UTC) (F)     (DEG/KT/KT) (MB)    (FT/S) (FT/S/D)
WINYAH BAY       NOT AVBL
LAKE MURRAY      2120   92     230/  8/ 14 1008.1F
ACE BASIN NERRS  2045   90     150/  4     1011.0
FORT PULASKI     2148   86 87  170/  6/ 10 1011.0F
SAPELO ISLAND    2100   92     160/  8     1011.0

$$

ANZ835-935-AMZ111-154-330-350-352-354-370-450-454-472-232300-
...C-MAN AND BUOY OBSERVATIONS...

STATION/POSITION TIME  TEMP    WIND        PRES    WAVE   SWELL
                       AIR SEA DIR/SP/G            HT/PER HT/PER/DIR
                 (UTC) (F)     (DEG/KT/KT) (MB)    (FT/S) (FT/S/D)
BUOY 41004       2150   84 85  210/ 12/ 16 1010.4F   4/10   3/120/10
BUOY 41008       2150   85 87  160/ 12/ 14 1010.8F   3/ 9   3/ 90/ 9
FOLLY BEACH CMAN 2200   86     180/ 15/ 17 1010.8F
CAPERS NEARSHORE 2108   84 87  210/ 14/ 19 1010.5F
FRIPP NEARSHORE  2108   86     200/ 14/ 17 1010.6F


STATION/POSITION TIME  TEMP    WIND        PRES    WAVE   SWELL
                       AIR SEA DIR/SP/G            HT/PER HT/PER/DIR
                 (UTC) (F)     (DEG/KT/KT) (MB)    (FT/S) (FT/S/D)
5E ST. MARYS GA  2200      87                N/A     3/ 9
FRYING PAN BUOY  2150   83 84  210/ 16/ 19 1010.2F   4/ 9   2/120/ 9
BUOY 41025       2150   84 85  210/ 16/ 17 1009.3F   4/ 5   2/130/ 9
CAPE LOOKOUT NC  2100   84     210/ 13/ 17 1009.6F
BUOY 41002       2150   84 86  220/ 10/ 12 1012.7F   3/ 8   3/110/ 8
BUOY 41010       2150   85 85  160/ 10/ 12 1012.1F   3/ 9   3/100/ 9
ST AUGUSTINE FL  2200   84 86  130/ 10/ 11 1012.1F


$$




USA.gov is the U.S. government's official web portal to all federal, state and local government web resources and services.